Orbital Elements
Epoch 2023 Feb. 25.0 TT = JDT 2460000.5
T 2022 July 1.24750 TT Rudenko
q 1.6543062 (2000.0) P Q
n 0.16532534 Peri. 161.09269 -0.03885692 +0.96623753
a 3.2878331 Node 106.04173 -0.94755758 +0.04528867
e 0.4968400 Incl. 15.36850 -0.31721409 -0.25364143
P 5.96
>From 377 observations 2010 Apr. 13-2022 Aug. 14, mean residual 0".4.
|